Time,TemperatureF,DewpointF,PressureIn,WindDirection,WindDirectionDegrees,WindSpeedMPH,WindSpeedGustMPH,Humidity,HourlyPrecipIn,Conditions,Clouds,dailyrainin,SolarRadiationWatts/m^2,SoftwareType,DateUTC
2013-06-16 00:01:00,63.0,58.4,29.88,NNW,327,0.0,0.0,85,0.00,,---,0.32,0.00,VWS V14.01,2013-06-16 05:01:00,
2013-06-16 00:06:00,62.9,58.3,29.87,NW,326,0.0,0.0,85,0.00,,---,0.00,0.00,VWS V14.01,2013-06-16 05:06:00,
2013-06-16 00:11:00,62.8,58.2,29.87,NW,326,0.0,0.0,85,0.00,,---,0.00,0.00,VWS V14.01,2013-06-16 05:11:00,
2013-06-16 00:16:00,62.6,58.0,29.87,NNW,327,0.0,0.0,85,0.00,,---,0.00,0.00,VWS V14.01,2013-06-16 05:16:00,
2013-06-16 00:21:00,62.3,57.7,29.87,NNW,327,0.0,0.0,85,0.00,,---,0.00,0.00,VWS V14.01,2013-06-16 05:21:00,
2013-06-16 00:26:00,61.9,57.7,29.87,NW,326,0.0,0.0,86,0.00,,---,0.00,0.00,VWS V14.01,2013-06-16 05:26:00,
2013-06-16 00:31:00,61.4,57.2,29.87,NNW,327,0.0,0.0,86,0.00,,---,0.00,0.00,VWS V14.01,2013-06-16 05:31:00,
2013-06-16 00:36:00,61.2,57.0,29.87,NW,326,0.0,0.0,86,0.00,,---,0.00,0.00,VWS V14.01,2013-06-16 05:36:00,
2013-06-16 00:41:00,61.0,56.8,29.87,NNW,327,0.0,0.0,86,0.00,,---,0.00,0.00,VWS V14.01,2013-06-16 05:41:00,
2013-06-16 00:46:00,60.9,56.7,29.87,NNW,327,0.0,0.0,86,0.00,,---,0.00,0.00,VWS V14.01,2013-06-16 05:46:00,
2013-06-16 00:51:00,60.8,56.6,29.87,NNW,327,0.0,0.0,86,0.00,,---,0.00,0.00,VWS V14.01,2013-06-16 05:51:00,
2013-06-16 00:56:00,60.8,56.6,29.87,NNW,327,0.0,0.0,86,0.00,,---,0.00,0.00,VWS V14.01,2013-06-16 05:56:00,
2013-06-16 01:01:00,60.9,57.0,29.87,NNW,327,0.0,0.0,87,0.00,,---,0.00,0.00,VWS V14.01,2013-06-16 06:01:00,
2013-06-16 01:06:00,60.9,56.7,29.87,NNW,327,0.0,0.0,86,0.00,,---,0.00,0.00,VWS V14.01,2013-06-16 06:06:00,
2013-06-16 01:11:00,60.6,56.4,29.87,NNW,327,0.0,0.0,86,0.00,,---,0.00,0.00,VWS V14.01,2013-06-16 06:11:00,
2013-06-16 01:16:00,60.3,56.1,29.87,NW,326,0.0,0.0,86,0.00,,---,0.00,0.00,VWS V14.01,2013-06-16 06:16:00,
2013-06-16 01:21:00,60.1,56.2,29.87,NNW,327,0.0,0.0,87,0.00,,---,0.00,0.00,VWS V14.01,2013-06-16 06:21:00,
2013-06-16 01:26:00,59.9,56.3,29.87,NNW,327,0.0,0.0,88,0.00,,---,0.00,0.00,VWS V14.01,2013-06-16 06:26:00,
2013-06-16 01:31:00,59.9,56.3,29.87,NNW,327,0.0,0.0,88,0.00,,---,0.00,0.00,VWS V14.01,2013-06-16 06:31:00,
2013-06-16 01:36:00,59.8,55.9,29.87,NW,326,0.0,0.0,87,0.00,,---,0.00,0.00,VWS V14.01,2013-06-16 06:36:00,
2013-06-16 01:41:00,59.5,55.6,29.87,NNW,327,0.0,0.0,87,0.00,,---,0.00,0.00,VWS V14.01,2013-06-16 06:41:00,
2013-06-16 01:46:00,59.2,55.3,29.87,NNW,327,0.0,0.0,87,0.00,,---,0.00,0.00,VWS V14.01,2013-06-16 06:46:00,
2013-06-16 01:51:00,59.0,55.1,29.87,NW,326,0.0,0.0,87,0.00,,---,0.00,0.00,VWS V14.01,2013-06-16 06:51:00,
2013-06-16 01:56:00,59.0,55.5,29.87,NNW,327,0.0,0.0,88,0.00,,---,0.00,0.00,VWS V14.01,2013-06-16 06:56:00,
2013-06-16 02:01:00,58.7,55.5,29.86,NNW,327,0.0,0.0,89,0.00,,---,0.00,0.00,VWS V14.01,2013-06-16 07:01:00,
2013-06-16 02:06:00,58.6,55.4,29.86,NW,326,0.0,0.0,89,0.00,,---,0.00,0.00,VWS V14.01,2013-06-16 07:06:00,
2013-06-16 02:11:00,58.5,55.3,29.86,NNW,327,0.0,0.0,89,0.00,,---,0.00,0.00,VWS V14.01,2013-06-16 07:11:00,
2013-06-16 02:16:00,58.5,55.6,29.86,NNW,327,0.0,0.0,90,0.00,,---,0.00,0.00,VWS V14.01,2013-06-16 07:16:00,
2013-06-16 02:21:00,58.5,55.6,29.86,NW,326,0.0,0.0,90,0.00,,---,0.00,0.00,VWS V14.01,2013-06-16 07:21:00,
2013-06-16 02:26:00,58.4,55.5,29.86,NNW,327,0.0,0.0,90,0.00,,---,0.00,0.00,VWS V14.01,2013-06-16 07:26:00,
2013-06-16 02:31:00,58.4,55.2,29.86,NNW,327,0.0,0.0,89,0.00,,---,0.00,0.00,VWS V14.01,2013-06-16 07:31:00,
2013-06-16 02:36:00,58.3,55.4,29.86,NNW,327,0.0,0.0,90,0.00,,---,0.00,0.00,VWS V14.01,2013-06-16 07:36:00,
2013-06-16 02:41:00,58.2,55.0,29.87,NNW,327,0.0,0.0,89,0.00,,---,0.00,0.00,VWS V14.01,2013-06-16 07:41:00,
2013-06-16 02:46:00,58.2,55.0,29.87,NNW,327,0.0,0.0,89,0.00,,---,0.00,0.00,VWS V14.01,2013-06-16 07:46:00,
2013-06-16 02:51:00,57.9,54.7,29.87,NNW,327,0.0,0.0,89,0.00,,---,0.00,0.00,VWS V14.01,2013-06-16 07:51:00,
2013-06-16 02:56:00,57.8,54.6,29.88,NNW,327,0.0,0.0,89,0.00,,---,0.00,0.00,VWS V14.01,2013-06-16 07:56:00,
2013-06-16 03:01:00,57.7,54.5,29.88,NW,326,0.0,0.0,89,0.00,,---,0.00,0.00,VWS V14.01,2013-06-16 08:01:00,
2013-06-16 03:06:00,57.7,54.5,29.88,NNW,327,4.0,4.0,89,0.00,,---,0.00,0.00,VWS V14.01,2013-06-16 08:06:00,
2013-06-16 03:11:00,58.0,54.8,29.88,NNW,327,3.0,4.0,89,0.00,,---,0.00,0.00,VWS V14.01,2013-06-16 08:11:00,
2013-06-16 03:16:00,58.3,54.8,29.88,NW,326,2.0,5.0,88,0.00,,---,0.00,0.00,VWS V14.01,2013-06-16 08:16:00,
2013-06-16 03:21:00,58.5,55.0,29.87,NNW,327,1.0,3.0,88,0.00,,---,0.00,0.00,VWS V14.01,2013-06-16 08:21:00,
2013-06-16 03:26:00,58.5,54.7,29.88,NNW,327,2.0,3.0,87,0.00,,---,0.00,0.00,VWS V14.01,2013-06-16 08:26:00,
2013-06-16 03:31:00,58.5,54.7,29.87,NW,326,2.0,3.0,87,0.00,,---,0.00,0.00,VWS V14.01,2013-06-16 08:31:00,
2013-06-16 03:36:00,58.4,54.5,29.87,NNW,327,2.0,2.0,87,0.00,,---,0.00,0.00,VWS V14.01,2013-06-16 08:36:00,
2013-06-16 03:41:00,58.3,54.5,29.87,NW,326,1.0,2.0,87,0.00,,---,0.00,0.00,VWS V14.01,2013-06-16 08:41:00,
2013-06-16 03:46:00,58.2,54.4,29.88,NNW,327,0.0,2.0,87,0.00,,---,0.00,0.00,VWS V14.01,2013-06-16 08:46:00,
2013-06-16 03:51:00,57.9,53.7,29.88,NNW,327,2.0,4.0,86,0.00,,---,0.00,0.00,VWS V14.01,2013-06-16 08:51:00,
2013-06-16 03:56:00,57.7,53.5,29.89,NNW,327,0.0,4.0,86,0.00,,---,0.00,0.00,VWS V14.01,2013-06-16 08:56:00,
2013-06-16 04:01:00,57.5,53.7,29.88,NNW,327,0.0,4.0,87,0.00,,---,0.00,0.00,VWS V14.01,2013-06-16 09:01:00,
2013-06-16 04:06:00,57.5,54.0,29.89,NNW,327,2.0,2.0,88,0.00,,---,0.00,0.00,VWS V14.01,2013-06-16 09:06:00,
2013-06-16 04:11:00,57.4,53.6,29.89,NW,326,4.0,4.0,87,0.00,,---,0.00,0.00,VWS V14.01,2013-06-16 09:11:00,
2013-06-16 04:16:00,57.4,53.6,29.89,NNW,327,4.0,4.0,87,0.00,,---,0.00,0.00,VWS V14.01,2013-06-16 09:16:00,
2013-06-16 04:21:00,57.6,53.8,29.89,NW,326,3.0,4.0,87,0.00,,---,0.00,0.00,VWS V14.01,2013-06-16 09:21:00,
2013-06-16 04:26:00,57.7,53.5,29.89,NNW,327,2.0,4.0,86,0.00,,---,0.00,0.00,VWS V14.01,2013-06-16 09:26:00,
2013-06-16 04:31:00,57.8,53.3,29.88,NNW,327,2.0,4.0,85,0.00,,---,0.00,0.00,VWS V14.01,2013-06-16 09:31:00,
2013-06-16 04:36:00,57.9,53.4,29.88,NW,326,2.0,2.0,85,0.00,,---,0.00,0.00,VWS V14.01,2013-06-16 09:36:00,
2013-06-16 04:41:00,58.0,53.2,29.88,NNW,327,2.0,2.0,84,0.00,,---,0.00,0.00,VWS V14.01,2013-06-16 09:41:00,
2013-06-16 04:46:00,58.1,53.0,29.88,NW,326,1.0,3.0,83,0.00,,---,0.00,0.00,VWS V14.01,2013-06-16 09:46:00,
2013-06-16 04:51:00,58.2,53.1,29.88,NW,326,0.0,0.0,83,0.00,,---,0.00,0.00,VWS V14.01,2013-06-16 09:51:00,
2013-06-16 04:56:00,58.0,52.5,29.88,NW,326,0.0,0.0,82,0.00,,---,0.00,0.00,VWS V14.01,2013-06-16 09:56:00,
2013-06-16 05:01:00,57.8,52.3,29.88,NNW,327,4.0,4.0,82,0.00,,---,0.00,0.00,VWS V14.01,2013-06-16 10:01:00,
2013-06-16 05:06:00,58.0,52.5,29.88,NNW,327,2.0,4.0,82,0.00,,---,0.00,0.00,VWS V14.01,2013-06-16 10:06:00,
2013-06-16 05:11:00,58.2,52.7,29.88,NW,326,3.0,4.0,82,0.00,,---,0.00,0.00,VWS V14.01,2013-06-16 10:11:00,
2013-06-16 05:16:00,58.3,52.8,29.89,NNW,327,4.0,5.0,82,0.00,,---,0.00,0.00,VWS V14.01,2013-06-16 10:16:00,
2013-06-16 05:21:00,58.2,52.7,29.89,NNW,327,4.0,5.0,82,0.00,,---,0.00,0.00,VWS V14.01,2013-06-16 10:21:00,
2013-06-16 05:26:00,58.2,52.4,29.89,NNW,327,3.0,5.0,81,0.00,,---,0.00,0.00,VWS V14.01,2013-06-16 10:26:00,
2013-06-16 05:31:00,58.3,52.8,29.89,NNW,327,0.0,5.0,82,0.00,,---,0.00,0.00,VWS V14.01,2013-06-16 10:31:00,
2013-06-16 05:36:00,58.0,51.9,29.89,NNW,327,0.0,0.0,80,0.00,,---,0.00,5.00,VWS V14.01,2013-06-16 10:36:00,
2013-06-16 05:41:00,57.7,51.9,29.90,NNW,327,0.0,0.0,81,0.00,,---,0.00,7.00,VWS V14.01,2013-06-16 10:41:00,
2013-06-16 05:46:00,57.3,51.9,29.90,NNW,327,0.0,0.0,82,0.00,,---,0.00,9.00,VWS V14.01,2013-06-16 10:46:00,
2013-06-16 05:51:00,56.8,51.7,29.90,NNW,327,0.0,0.0,83,0.00,,---,0.00,12.00,VWS V14.01,2013-06-16 10:51:00,
2013-06-16 05:56:00,56.4,52.0,29.90,NW,326,2.0,3.0,85,0.00,,---,0.00,16.00,VWS V14.01,2013-06-16 10:56:00,
2013-06-16 06:01:00,56.2,52.1,29.90,NNW,327,3.0,3.0,86,0.00,,---,0.00,21.00,VWS V14.01,2013-06-16 11:01:00,
2013-06-16 06:06:00,56.1,52.0,29.90,NW,326,2.0,3.0,86,0.00,,---,0.00,30.00,VWS V14.01,2013-06-16 11:06:00,
2013-06-16 06:11:00,56.2,52.4,29.90,NNW,327,2.0,3.0,87,0.00,,---,0.00,39.00,VWS V14.01,2013-06-16 11:11:00,
2013-06-16 06:16:00,56.3,52.5,29.91,NNW,327,1.0,3.0,87,0.00,,---,0.00,47.00,VWS V14.01,2013-06-16 11:16:00,
2013-06-16 06:21:00,56.5,52.7,29.91,NNW,327,0.0,0.0,87,0.00,,---,0.00,60.00,VWS V14.01,2013-06-16 11:21:00,
2013-06-16 06:26:00,56.6,52.8,29.91,NW,326,0.0,0.0,87,0.00,,---,0.00,72.00,VWS V14.01,2013-06-16 11:26:00,
2013-06-16 06:31:00,56.8,53.0,29.91,NW,326,0.0,0.0,87,0.00,,---,0.00,86.00,VWS V14.01,2013-06-16 11:31:00,
2013-06-16 06:36:00,57.0,53.5,29.91,NNW,327,0.0,0.0,88,0.00,,---,0.00,102.00,VWS V14.01,2013-06-16 11:36:00,
2013-06-16 06:41:00,57.2,53.7,29.91,NW,326,1.0,2.0,88,0.00,,---,0.00,118.00,VWS V14.01,2013-06-16 11:41:00,
2013-06-16 06:46:00,57.3,54.1,29.91,NW,326,0.0,2.0,89,0.00,,---,0.00,134.00,VWS V14.01,2013-06-16 11:46:00,
2013-06-16 06:51:00,57.5,54.3,29.91,NNW,327,1.0,1.0,89,0.00,,---,0.00,149.00,VWS V14.01,2013-06-16 11:51:00,
2013-06-16 06:56:00,57.8,54.6,29.91,NNW,327,3.0,3.0,89,0.00,,---,0.00,162.00,VWS V14.01,2013-06-16 11:56:00,
2013-06-16 07:01:00,58.2,55.0,29.91,NW,326,0.0,3.0,89,0.00,,---,0.00,176.00,VWS V14.01,2013-06-16 12:01:00,
2013-06-16 07:06:00,58.6,55.4,29.91,NW,326,1.0,2.0,89,0.00,,---,0.00,190.00,VWS V14.01,2013-06-16 12:06:00,
2013-06-16 07:11:00,59.0,55.1,29.91,NNW,327,2.0,4.0,87,0.00,,---,0.00,206.00,VWS V14.01,2013-06-16 12:11:00,
2013-06-16 07:16:00,59.3,55.4,29.91,NW,326,4.0,5.0,87,0.00,,---,0.00,220.00,VWS V14.01,2013-06-16 12:16:00,
2013-06-16 07:21:00,60.0,55.2,29.91,NW,317,7.0,7.0,84,0.00,,---,0.00,237.00,VWS V14.01,2013-06-16 12:21:00,
2013-06-16 07:26:00,60.6,54.8,29.91,NW,306,4.0,7.0,81,0.00,,---,0.00,251.00,VWS V14.01,2013-06-16 12:26:00,
2013-06-16 07:31:00,61.3,55.1,29.91,WNW,302,4.0,7.0,80,0.00,,---,0.00,267.00,VWS V14.01,2013-06-16 12:31:00,
2013-06-16 07:36:00,61.8,55.6,29.91,WNW,302,3.0,5.0,80,0.00,,---,0.00,283.00,VWS V14.01,2013-06-16 12:36:00,
2013-06-16 07:41:00,62.3,55.7,29.91,WNW,302,3.0,5.0,79,0.00,,---,0.00,299.00,VWS V14.01,2013-06-16 12:41:00,
2013-06-16 07:46:00,62.8,55.8,29.91,WNW,302,3.0,5.0,78,0.00,,---,0.00,315.00,VWS V14.01,2013-06-16 12:46:00,
2013-06-16 07:51:00,63.3,56.3,29.91,WNW,300,4.0,5.0,78,0.00,,---,0.00,329.00,VWS V14.01,2013-06-16 12:51:00,
2013-06-16 07:56:00,63.8,56.1,29.91,WNW,302,5.0,6.0,76,0.00,,---,0.00,345.00,VWS V14.01,2013-06-16 12:56:00,
2013-06-16 08:01:00,64.4,55.9,29.91,WNW,296,5.0,9.0,74,0.00,,---,0.00,362.00,VWS V14.01,2013-06-16 13:01:00,
2013-06-16 08:06:00,64.9,55.7,29.91,WNW,294,5.0,10.0,72,0.00,,---,0.00,376.00,VWS V14.01,2013-06-16 13:06:00,
2013-06-16 08:11:00,65.4,55.8,29.90,WNW,294,5.0,10.0,71,0.00,,---,0.00,396.00,VWS V14.01,2013-06-16 13:11:00,
2013-06-16 08:16:00,65.8,56.5,29.91,WNW,292,6.0,10.0,72,0.00,,---,0.00,411.00,VWS V14.01,2013-06-16 13:16:00,
2013-06-16 08:21:00,66.2,56.5,29.91,WNW,292,7.0,7.0,71,0.00,,---,0.00,429.00,VWS V14.01,2013-06-16 13:21:00,
2013-06-16 08:26:00,66.5,56.4,29.91,West,281,8.0,10.0,70,0.00,,---,0.00,445.00,VWS V14.01,2013-06-16 13:26:00,
2013-06-16 08:31:00,66.9,56.8,29.91,WNW,284,6.0,10.0,70,0.00,,---,0.00,461.00,VWS V14.01,2013-06-16 13:31:00,
2013-06-16 08:36:00,67.3,56.8,29.91,WNW,286,10.0,10.0,69,0.00,,---,0.00,475.00,VWS V14.01,2013-06-16 13:36:00,
2013-06-16 08:41:00,67.6,56.3,29.91,WNW,295,7.0,10.0,67,0.00,,---,0.00,490.00,VWS V14.01,2013-06-16 13:41:00,
2013-06-16 08:46:00,68.0,57.5,29.91,WNW,294,5.0,10.0,69,0.00,,---,0.00,504.00,VWS V14.01,2013-06-16 13:46:00,
2013-06-16 08:51:00,68.3,57.8,29.91,WNW,290,6.0,9.0,69,0.00,,---,0.00,519.00,VWS V14.01,2013-06-16 13:51:00,
2013-06-16 08:56:00,68.7,57.7,29.91,WNW,290,5.0,10.0,68,0.00,,---,0.00,536.00,VWS V14.01,2013-06-16 13:56:00,
2013-06-16 09:01:00,69.1,58.1,29.91,WNW,288,5.0,10.0,68,0.00,,---,0.00,552.00,VWS V14.01,2013-06-16 14:01:00,
2013-06-16 09:06:00,69.6,59.0,29.91,WNW,298,7.0,7.0,69,0.00,,---,0.00,568.00,VWS V14.01,2013-06-16 14:06:00,
2013-06-16 09:11:00,70.1,58.7,29.91,WNW,298,4.0,7.0,67,0.00,,---,0.00,582.00,VWS V14.01,2013-06-16 14:11:00,
2013-06-16 09:16:00,70.6,58.3,29.91,WNW,300,7.0,8.0,65,0.00,,---,0.00,596.00,VWS V14.01,2013-06-16 14:16:00,
2013-06-16 09:21:00,71.2,58.8,29.92,WNW,294,6.0,10.0,65,0.00,,---,0.00,610.00,VWS V14.01,2013-06-16 14:21:00,
2013-06-16 09:26:00,71.6,57.0,29.92,WNW,290,9.0,10.0,60,0.00,,---,0.00,628.00,VWS V14.01,2013-06-16 14:26:00,
2013-06-16 09:31:00,72.1,57.9,29.92,WNW,289,6.0,10.0,61,0.00,,---,0.00,640.00,VWS V14.01,2013-06-16 14:31:00,
2013-06-16 09:36:00,72.5,59.2,29.92,WNW,286,5.0,7.0,63,0.00,,---,0.00,656.00,VWS V14.01,2013-06-16 14:36:00,
2013-06-16 09:41:00,73.0,60.5,29.92,West,281,5.0,7.0,65,0.00,,---,0.00,670.00,VWS V14.01,2013-06-16 14:41:00,
2013-06-16 09:46:00,73.4,59.6,29.92,West,281,6.0,7.0,62,0.00,,---,0.00,680.00,VWS V14.01,2013-06-16 14:46:00,
2013-06-16 09:51:00,73.8,58.1,29.92,WNW,287,5.0,7.0,58,0.00,,---,0.00,694.00,VWS V14.01,2013-06-16 14:51:00,
2013-06-16 09:56:00,74.2,57.5,29.92,WNW,292,7.0,10.0,56,0.00,,---,0.00,708.00,VWS V14.01,2013-06-16 14:56:00,
2013-06-16 10:01:00,74.6,57.9,29.92,WNW,303,6.0,12.0,56,0.00,,---,0.00,722.00,VWS V14.01,2013-06-16 15:01:00,
2013-06-16 10:06:00,74.9,57.7,29.92,West,278,6.0,10.0,55,0.00,,---,0.00,737.00,VWS V14.01,2013-06-16 15:06:00,
2013-06-16 10:11:00,75.2,56.9,29.92,West,272,5.0,10.0,53,0.00,,---,0.00,749.00,VWS V14.01,2013-06-16 15:11:00,
2013-06-16 10:16:00,75.4,58.1,29.91,WNW,287,5.0,10.0,55,0.00,,---,0.00,761.00,VWS V14.01,2013-06-16 15:16:00,
2013-06-16 10:21:00,75.7,57.9,29.91,WNW,287,3.0,7.0,54,0.00,,---,0.00,772.00,VWS V14.01,2013-06-16 15:21:00,
2013-06-16 10:26:00,76.0,58.2,29.91,WNW,287,3.0,7.0,54,0.00,,---,0.00,786.00,VWS V14.01,2013-06-16 15:26:00,
2013-06-16 10:31:00,76.3,57.4,29.91,WNW,284,3.0,9.0,52,0.00,,---,0.00,798.00,VWS V14.01,2013-06-16 15:31:00,
2013-06-16 10:36:00,76.6,54.3,29.91,WNW,301,0.0,10.0,46,0.00,,---,0.00,810.00,VWS V14.01,2013-06-16 15:36:00,
2013-06-16 10:41:00,76.8,55.1,29.90,WNW,300,0.0,10.0,47,0.00,,---,0.00,821.00,VWS V14.01,2013-06-16 15:41:00,
2013-06-16 10:46:00,77.3,58.3,29.90,WNW,288,0.0,10.0,52,0.00,,---,0.00,830.00,VWS V14.01,2013-06-16 15:46:00,
2013-06-16 10:51:00,77.6,55.8,29.90,WNW,283,0.0,0.0,47,0.00,,---,0.00,838.00,VWS V14.01,2013-06-16 15:51:00,
2013-06-16 10:56:00,78.2,56.9,29.90,West,277,0.0,0.0,48,0.00,,---,0.00,851.00,VWS V14.01,2013-06-16 15:56:00,
2013-06-16 11:01:00,78.6,54.3,29.90,NW,306,0.0,0.0,43,0.00,,---,0.00,872.00,VWS V14.01,2013-06-16 16:01:00,
2013-06-16 11:06:00,78.7,53.0,29.89,West,275,0.0,0.0,41,0.00,,---,0.00,886.00,VWS V14.01,2013-06-16 16:06:00,
2013-06-16 11:11:00,78.8,51.8,29.89,WNW,282,0.0,0.0,39,0.00,,---,0.00,737.00,VWS V14.01,2013-06-16 16:11:00,
2013-06-16 11:16:00,78.9,51.9,29.90,West,275,0.0,0.0,39,0.00,,---,0.00,893.00,VWS V14.01,2013-06-16 16:16:00,
2013-06-16 11:21:00,79.1,54.1,29.89,WNW,293,0.0,0.0,42,0.00,,---,0.00,911.00,VWS V14.01,2013-06-16 16:21:00,
2013-06-16 11:26:00,79.5,52.4,29.89,WNW,300,0.0,0.0,39,0.00,,---,0.00,914.00,VWS V14.01,2013-06-16 16:26:00,
2013-06-16 11:31:00,79.8,54.0,29.89,NW,304,0.0,0.0,41,0.00,,---,0.00,921.00,VWS V14.01,2013-06-16 16:31:00,
2013-06-16 11:36:00,80.0,52.8,29.89,WNW,298,0.0,0.0,39,0.00,,---,0.00,928.00,VWS V14.01,2013-06-16 16:36:00,
2013-06-16 11:41:00,80.0,54.9,29.89,WNW,289,0.0,0.0,42,0.00,,---,0.00,937.00,VWS V14.01,2013-06-16 16:41:00,
2013-06-16 11:46:00,80.2,55.0,29.89,West,265,0.0,0.0,42,0.00,,---,0.00,947.00,VWS V14.01,2013-06-16 16:46:00,
2013-06-16 11:51:00,80.4,53.2,29.89,NW,315,0.0,0.0,39,0.00,,---,0.00,953.00,VWS V14.01,2013-06-16 16:51:00,
2013-06-16 11:56:00,80.5,54.0,29.88,WNW,282,0.0,3.0,40,0.00,,---,0.00,954.00,VWS V14.01,2013-06-16 16:56:00,
2013-06-16 12:01:00,80.7,52.0,29.88,WNW,294,0.0,3.0,37,0.00,,---,0.00,960.00,VWS V14.01,2013-06-16 17:01:00,
2013-06-16 12:06:00,80.9,53.7,29.89,WNW,292,0.0,0.0,39,0.00,,---,0.00,965.00,VWS V14.01,2013-06-16 17:06:00,
2013-06-16 12:11:00,81.0,52.3,29.89,WNW,284,0.0,0.0,37,0.00,,---,0.00,974.00,VWS V14.01,2013-06-16 17:11:00,
2013-06-16 12:16:00,81.1,50.9,29.89,WNW,286,0.0,0.0,35,0.00,,---,0.00,981.00,VWS V14.01,2013-06-16 17:16:00,
2013-06-16 12:21:00,81.4,55.5,29.88,WNW,295,0.0,0.0,41,0.00,,---,0.00,984.00,VWS V14.01,2013-06-16 17:21:00,
2013-06-16 12:26:00,81.8,57.1,29.88,NW,304,0.0,0.0,43,0.00,,---,0.00,993.00,VWS V14.01,2013-06-16 17:26:00,
2013-06-16 12:31:00,82.0,52.4,29.88,WNW,287,0.0,0.0,36,0.00,,---,0.00,1004.00,VWS V14.01,2013-06-16 17:31:00,
2013-06-16 12:36:00,82.0,52.4,29.88,West,281,13.0,17.0,36,0.00,,---,0.00,1013.00,VWS V14.01,2013-06-16 17:36:00,
2013-06-16 12:41:00,82.3,53.5,29.88,West,280,11.0,20.0,37,0.00,,---,0.00,1013.00,VWS V14.01,2013-06-16 17:41:00,
2013-06-16 12:46:00,82.5,55.8,29.89,WNW,295,9.0,20.0,40,0.00,,---,0.00,1021.00,VWS V14.01,2013-06-16 17:46:00,
2013-06-16 12:51:00,82.6,52.2,29.89,West,275,14.0,22.0,35,0.00,,---,0.00,896.00,VWS V14.01,2013-06-16 17:51:00,
2013-06-16 12:56:00,82.6,52.2,29.89,NW,317,16.0,22.0,35,0.00,,---,0.00,1021.00,VWS V14.01,2013-06-16 17:56:00,
2013-06-16 13:01:00,82.6,54.5,29.88,NW,305,9.0,22.0,38,0.00,,---,0.00,1004.00,VWS V14.01,2013-06-16 18:01:00,
2013-06-16 13:06:00,82.7,51.5,29.89,WNW,292,10.0,20.0,34,0.00,,---,0.00,1046.00,VWS V14.01,2013-06-16 18:06:00,
2013-06-16 13:11:00,82.8,52.4,29.88,NNW,327,11.0,20.0,35,0.00,,---,0.00,1046.00,VWS V14.01,2013-06-16 18:11:00,
2013-06-16 13:16:00,82.9,54.0,29.88,West,280,19.0,20.0,37,0.00,,---,0.00,983.00,VWS V14.01,2013-06-16 18:16:00,
2013-06-16 13:21:00,83.0,51.0,29.89,WSW,258,12.0,20.0,33,0.00,,---,0.00,1037.00,VWS V14.01,2013-06-16 18:21:00,
2013-06-16 13:26:00,83.2,55.0,29.89,West,259,15.0,20.0,38,0.00,,---,0.00,1000.00,VWS V14.01,2013-06-16 18:26:00,
2013-06-16 13:31:00,83.2,53.5,29.89,West,259,9.0,20.0,36,0.00,,---,0.00,870.00,VWS V14.01,2013-06-16 18:31:00,
2013-06-16 13:36:00,83.4,52.9,29.89,West,269,12.0,20.0,35,0.00,,---,0.00,1013.00,VWS V14.01,2013-06-16 18:36:00,
2013-06-16 13:41:00,83.6,55.3,29.89,West,263,11.0,20.0,38,0.00,,---,0.00,1065.00,VWS V14.01,2013-06-16 18:41:00,
2013-06-16 13:46:00,83.8,56.2,29.89,WSW,250,10.0,20.0,39,0.00,,---,0.00,1056.00,VWS V14.01,2013-06-16 18:46:00,
2013-06-16 13:51:00,84.1,55.0,29.89,West,267,17.0,17.0,37,0.00,,---,0.00,1044.00,VWS V14.01,2013-06-16 18:51:00,
2013-06-16 13:56:00,84.3,55.2,29.89,West,275,10.0,19.0,37,0.00,,---,0.00,979.00,VWS V14.01,2013-06-16 18:56:00,
2013-06-16 14:01:00,84.1,51.9,29.89,West,267,11.0,19.0,33,0.00,,---,0.00,343.00,VWS V14.01,2013-06-16 19:01:00,
2013-06-16 14:06:00,83.8,52.5,29.89,NW,319,13.0,16.0,34,0.00,,---,0.00,1005.00,VWS V14.01,2013-06-16 19:06:00,
2013-06-16 14:11:00,83.9,54.9,29.89,NW,306,10.0,18.0,37,0.00,,---,0.00,875.00,VWS V14.01,2013-06-16 19:11:00,
2013-06-16 14:16:00,84.0,53.4,29.89,WNW,287,18.0,22.0,35,0.00,,---,0.00,645.00,VWS V14.01,2013-06-16 19:16:00,
2013-06-16 14:21:00,83.9,51.8,29.89,NW,304,16.0,20.0,33,0.00,,---,0.00,631.00,VWS V14.01,2013-06-16 19:21:00,
2013-06-16 14:26:00,83.8,54.0,29.89,WNW,300,8.0,20.0,36,0.00,,---,0.00,608.00,VWS V14.01,2013-06-16 19:26:00,
2013-06-16 14:31:00,83.7,55.4,29.89,WNW,298,19.0,20.0,38,0.00,,---,0.00,729.00,VWS V14.01,2013-06-16 19:31:00,
2013-06-16 14:36:00,83.8,54.0,29.89,NW,313,11.0,12.0,36,0.00,,---,0.00,830.00,VWS V14.01,2013-06-16 19:36:00,
2013-06-16 14:41:00,84.0,53.4,29.89,West,277,11.0,22.0,35,0.00,,---,0.00,793.00,VWS V14.01,2013-06-16 19:41:00,
2013-06-16 14:46:00,84.1,51.1,29.89,WNW,284,8.0,22.0,32,0.00,,---,0.00,842.00,VWS V14.01,2013-06-16 19:46:00,
2013-06-16 14:51:00,84.3,55.2,29.89,West,269,14.0,15.0,37,0.00,,---,0.00,898.00,VWS V14.01,2013-06-16 19:51:00,
2013-06-16 14:56:00,84.5,55.4,29.88,West,275,13.0,19.0,37,0.00,,---,0.00,826.00,VWS V14.01,2013-06-16 19:56:00,
2013-06-16 15:01:00,84.5,53.1,29.88,West,275,14.0,19.0,34,0.00,,---,0.00,765.00,VWS V14.01,2013-06-16 20:01:00,
2013-06-16 15:06:00,84.5,52.3,29.88,NW,315,9.0,18.0,33,0.00,,---,0.00,737.00,VWS V14.01,2013-06-16 20:06:00,
2013-06-16 15:11:00,84.5,53.1,29.87,WNW,283,11.0,18.0,34,0.00,,---,0.00,717.00,VWS V14.01,2013-06-16 20:11:00,
2013-06-16 15:16:00,84.4,49.6,29.87,West,277,12.0,19.0,30,0.00,,---,0.00,664.00,VWS V14.01,2013-06-16 20:16:00,
2013-06-16 15:21:00,84.3,52.1,29.87,West,276,6.0,16.0,33,0.00,,---,0.00,693.00,VWS V14.01,2013-06-16 20:21:00,
2013-06-16 15:26:00,84.5,53.1,29.87,NW,311,14.0,21.0,34,0.00,,---,0.00,700.00,VWS V14.01,2013-06-16 20:26:00,
2013-06-16 15:31:00,84.5,53.1,29.87,West,279,18.0,21.0,34,0.00,,---,0.00,619.00,VWS V14.01,2013-06-16 20:31:00,
2013-06-16 15:36:00,84.6,52.4,29.87,West,280,10.0,20.0,33,0.00,,---,0.00,577.00,VWS V14.01,2013-06-16 20:36:00,
2013-06-16 15:41:00,84.5,53.1,29.87,West,273,12.0,20.0,34,0.00,,---,0.00,580.00,VWS V14.01,2013-06-16 20:41:00,
2013-06-16 15:46:00,84.5,53.9,29.86,West,265,13.0,20.0,35,0.00,,---,0.00,598.00,VWS V14.01,2013-06-16 20:46:00,
2013-06-16 15:51:00,84.5,53.9,29.86,West,272,11.0,17.0,35,0.00,,---,0.00,605.00,VWS V14.01,2013-06-16 20:51:00,
2013-06-16 15:56:00,84.4,53.0,29.86,West,278,15.0,20.0,34,0.00,,---,0.00,578.00,VWS V14.01,2013-06-16 20:56:00,
2013-06-16 16:01:00,84.5,53.9,29.87,West,267,17.0,21.0,35,0.00,,---,0.00,585.00,VWS V14.01,2013-06-16 21:01:00,
2013-06-16 16:06:00,84.5,53.9,29.86,West,260,15.0,17.0,35,0.00,,---,0.00,561.00,VWS V14.01,2013-06-16 21:06:00,
2013-06-16 16:11:00,84.4,53.8,29.86,West,269,11.0,21.0,35,0.00,,---,0.00,587.00,VWS V14.01,2013-06-16 21:11:00,
2013-06-16 16:16:00,84.5,53.9,29.86,West,274,11.0,21.0,35,0.00,,---,0.00,547.00,VWS V14.01,2013-06-16 21:16:00,
2013-06-16 16:21:00,84.5,56.1,29.86,West,269,15.0,15.0,38,0.00,,---,0.00,496.00,VWS V14.01,2013-06-16 21:21:00,
2013-06-16 16:26:00,84.4,53.8,29.86,WSW,257,11.0,21.0,35,0.00,,---,0.00,519.00,VWS V14.01,2013-06-16 21:26:00,
2013-06-16 16:31:00,84.3,55.2,29.86,WSW,253,17.0,21.0,37,0.00,,---,0.00,482.00,VWS V14.01,2013-06-16 21:31:00,
2013-06-16 16:36:00,84.3,52.9,29.85,West,265,9.0,20.0,34,0.00,,---,0.00,599.00,VWS V14.01,2013-06-16 21:36:00,
2013-06-16 16:41:00,84.3,55.2,29.85,West,275,11.0,20.0,37,0.00,,---,0.00,497.00,VWS V14.01,2013-06-16 21:41:00,
2013-06-16 16:46:00,84.3,53.7,29.85,West,268,10.0,20.0,35,0.00,,---,0.00,406.00,VWS V14.01,2013-06-16 21:46:00,
2013-06-16 16:51:00,84.2,54.4,29.85,WSW,256,14.0,15.0,36,0.00,,---,0.00,429.00,VWS V14.01,2013-06-16 21:51:00,
2013-06-16 16:56:00,84.1,54.3,29.85,WSW,249,14.0,15.0,36,0.00,,---,0.00,427.00,VWS V14.01,2013-06-16 21:56:00,
2013-06-16 17:01:00,84.0,54.2,29.85,West,267,12.0,21.0,36,0.00,,---,0.00,394.00,VWS V14.01,2013-06-16 22:01:00,
2013-06-16 17:06:00,83.8,53.3,29.85,WNW,287,12.0,16.0,35,0.00,,---,0.00,404.00,VWS V14.01,2013-06-16 22:06:00,
2013-06-16 17:11:00,83.7,50.7,29.85,WNW,282,11.0,20.0,32,0.00,,---,0.00,422.00,VWS V14.01,2013-06-16 22:11:00,
2013-06-16 17:16:00,83.7,53.2,29.84,WNW,284,10.0,20.0,35,0.00,,---,0.00,415.00,VWS V14.01,2013-06-16 22:16:00,
2013-06-16 17:21:00,83.7,51.6,29.84,West,279,13.0,15.0,33,0.00,,---,0.00,336.00,VWS V14.01,2013-06-16 22:21:00,
2013-06-16 17:26:00,83.7,51.6,29.84,West,278,9.0,21.0,33,0.00,,---,0.00,288.00,VWS V14.01,2013-06-16 22:26:00,
2013-06-16 17:31:00,83.5,50.6,29.84,West,275,14.0,21.0,32,0.00,,---,0.00,241.00,VWS V14.01,2013-06-16 22:31:00,
2013-06-16 17:36:00,83.3,52.0,29.84,West,271,15.0,18.0,34,0.00,,---,0.00,417.00,VWS V14.01,2013-06-16 22:36:00,
2013-06-16 17:41:00,83.3,52.0,29.84,West,263,6.0,18.0,34,0.00,,---,0.00,436.00,VWS V14.01,2013-06-16 22:41:00,
2013-06-16 17:46:00,83.5,53.0,29.84,West,273,11.0,18.0,35,0.00,,---,0.00,592.00,VWS V14.01,2013-06-16 22:46:00,
2013-06-16 17:51:00,83.9,52.6,29.84,West,259,15.0,18.0,34,0.00,,---,0.00,591.00,VWS V14.01,2013-06-16 22:51:00,
2013-06-16 17:56:00,84.2,51.2,29.84,West,277,11.0,18.0,32,0.00,,---,0.00,480.00,VWS V14.01,2013-06-16 22:56:00,
2013-06-16 18:01:00,84.4,50.5,29.84,West,263,11.0,18.0,31,0.00,,---,0.00,448.00,VWS V14.01,2013-06-16 23:01:00,
2013-06-16 18:06:00,84.4,49.6,29.84,West,277,15.0,15.0,30,0.00,,---,0.00,443.00,VWS V14.01,2013-06-16 23:06:00,
2013-06-16 18:11:00,84.4,53.0,29.83,West,280,6.0,15.0,34,0.00,,---,0.00,454.00,VWS V14.01,2013-06-16 23:11:00,
2013-06-16 18:16:00,84.3,52.9,29.83,WSW,258,12.0,15.0,34,0.00,,---,0.00,427.00,VWS V14.01,2013-06-16 23:16:00,
2013-06-16 18:21:00,84.2,52.0,29.84,SW,236,14.0,16.0,33,0.00,,---,0.00,452.00,VWS V14.01,2013-06-16 23:21:00,
2013-06-16 18:26:00,84.3,52.1,29.84,West,261,11.0,16.0,33,0.00,,---,0.00,322.00,VWS V14.01,2013-06-16 23:26:00,
2013-06-16 18:31:00,84.2,54.4,29.83,West,263,9.0,16.0,36,0.00,,---,0.00,269.00,VWS V14.01,2013-06-16 23:31:00,
2013-06-16 18:36:00,83.8,52.5,29.83,West,264,9.0,13.0,34,0.00,,---,0.00,325.00,VWS V14.01,2013-06-16 23:36:00,
2013-06-16 18:41:00,83.6,53.1,29.83,West,267,8.0,13.0,35,0.00,,---,0.00,401.00,VWS V14.01,2013-06-16 23:41:00,
2013-06-16 18:46:00,83.5,51.4,29.83,West,272,9.0,13.0,33,0.00,,---,0.00,357.00,VWS V14.01,2013-06-16 23:46:00,
2013-06-16 18:51:00,83.5,52.2,29.82,West,267,11.0,12.0,34,0.00,,---,0.00,388.00,VWS V14.01,2013-06-16 23:51:00,
2013-06-16 18:56:00,83.6,51.5,29.83,West,272,7.0,14.0,33,0.00,,---,0.00,341.00,VWS V14.01,2013-06-16 23:56:00,
2013-06-16 19:01:00,83.6,53.1,29.82,West,271,8.0,14.0,35,0.00,,---,0.00,302.00,VWS V14.01,2013-06-17 00:01:00,
2013-06-16 19:06:00,83.6,51.5,29.82,West,267,11.0,13.0,33,0.00,,---,0.00,276.00,VWS V14.01,2013-06-17 00:06:00,
2013-06-16 19:11:00,83.6,51.5,29.82,West,265,9.0,13.0,33,0.00,,---,0.00,251.00,VWS V14.01,2013-06-17 00:11:00,
2013-06-16 19:16:00,83.5,51.4,29.82,West,266,6.0,13.0,33,0.00,,---,0.00,225.00,VWS V14.01,2013-06-17 00:16:00,
2013-06-16 19:21:00,83.4,51.3,29.82,West,269,7.0,8.0,33,0.00,,---,0.00,213.00,VWS V14.01,2013-06-17 00:21:00,
2013-06-16 19:26:00,83.1,51.0,29.82,West,268,6.0,9.0,33,0.00,,---,0.00,193.00,VWS V14.01,2013-06-17 00:26:00,
2013-06-16 19:31:00,83.0,49.3,29.82,West,269,5.0,10.0,31,0.00,,---,0.00,174.00,VWS V14.01,2013-06-17 00:31:00,
2013-06-16 19:36:00,82.9,52.5,29.82,West,260,4.0,7.0,35,0.00,,---,0.00,155.00,VWS V14.01,2013-06-17 00:36:00,
2013-06-16 19:41:00,82.6,53.7,29.82,West,262,11.0,13.0,37,0.00,,---,0.00,137.00,VWS V14.01,2013-06-17 00:41:00,
2013-06-16 19:46:00,82.1,56.1,29.82,WSW,248,12.0,14.0,41,0.00,,---,0.00,120.00,VWS V14.01,2013-06-17 00:46:00,
2013-06-16 19:51:00,81.4,56.8,29.82,WSW,244,11.0,20.0,43,0.00,,---,0.00,107.00,VWS V14.01,2013-06-17 00:51:00,
2013-06-16 19:56:00,80.9,57.0,29.82,WSW,238,11.0,20.0,44,0.00,,---,0.00,91.00,VWS V14.01,2013-06-17 00:56:00,
2013-06-16 20:01:00,80.4,56.5,29.82,WSW,241,10.0,20.0,44,0.00,,---,0.00,77.00,VWS V14.01,2013-06-17 01:01:00,
2013-06-16 20:06:00,80.0,55.5,29.82,SW,227,14.0,17.0,43,0.00,,---,0.00,65.00,VWS V14.01,2013-06-17 01:06:00,
2013-06-16 20:11:00,79.6,55.8,29.82,SW,234,13.0,17.0,44,0.00,,---,0.00,40.00,VWS V14.01,2013-06-17 01:11:00,
2013-06-16 20:16:00,79.1,56.0,29.82,SW,236,7.0,17.0,45,0.00,,---,0.00,30.00,VWS V14.01,2013-06-17 01:16:00,
2013-06-16 20:21:00,78.7,56.2,29.83,WSW,238,12.0,14.0,46,0.00,,---,0.00,23.00,VWS V14.01,2013-06-17 01:21:00,
2013-06-16 20:26:00,78.2,56.9,29.83,WSW,237,12.0,14.0,48,0.00,,---,0.00,18.00,VWS V14.01,2013-06-17 01:26:00,
2013-06-16 20:31:00,77.9,56.7,29.83,SW,236,9.0,16.0,48,0.00,,---,0.00,19.00,VWS V14.01,2013-06-17 01:31:00,
2013-06-16 20:36:00,77.6,57.0,29.84,WSW,238,8.0,13.0,49,0.00,,---,0.00,18.00,VWS V14.01,2013-06-17 01:36:00,
2013-06-16 20:41:00,77.5,56.9,29.84,WSW,237,10.0,14.0,49,0.00,,---,0.00,16.00,VWS V14.01,2013-06-17 01:41:00,
2013-06-16 20:46:00,77.3,56.7,29.84,WSW,241,8.0,14.0,49,0.00,,---,0.00,14.00,VWS V14.01,2013-06-17 01:46:00,
2013-06-16 20:51:00,76.9,56.9,29.84,SW,236,9.0,14.0,50,0.00,,---,0.00,11.00,VWS V14.01,2013-06-17 01:51:00,
2013-06-16 20:56:00,76.6,57.1,29.84,WSW,237,10.0,14.0,51,0.00,,---,0.00,11.00,VWS V14.01,2013-06-17 01:56:00,
2013-06-16 21:01:00,76.3,56.3,29.84,WSW,240,13.0,14.0,50,0.00,,---,0.00,7.00,VWS V14.01,2013-06-17 02:01:00,
2013-06-16 21:06:00,76.2,56.8,29.84,SW,236,9.0,12.0,51,0.00,,---,0.00,5.00,VWS V14.01,2013-06-17 02:06:00,
2013-06-16 21:11:00,75.9,56.5,29.84,WSW,238,6.0,12.0,51,0.00,,---,0.00,0.00,VWS V14.01,2013-06-17 02:11:00,
2013-06-16 21:16:00,75.5,56.7,29.84,SW,236,9.0,12.0,52,0.00,,---,0.00,0.00,VWS V14.01,2013-06-17 02:16:00,
2013-06-16 21:21:00,75.3,56.5,29.85,SW,235,9.0,13.0,52,0.00,,---,0.00,0.00,VWS V14.01,2013-06-17 02:21:00,
2013-06-16 21:26:00,75.1,56.3,29.85,WSW,241,7.0,13.0,52,0.00,,---,0.00,0.00,VWS V14.01,2013-06-17 02:26:00,
2013-06-16 21:31:00,74.8,56.5,29.85,WSW,240,6.0,13.0,53,0.00,,---,0.00,0.00,VWS V14.01,2013-06-17 02:31:00,
2013-06-16 21:36:00,74.3,56.1,29.84,WSW,240,6.0,8.0,53,0.00,,---,0.00,0.00,VWS V14.01,2013-06-17 02:36:00,
2013-06-16 21:41:00,74.1,56.4,29.85,WSW,238,5.0,9.0,54,0.00,,---,0.00,0.00,VWS V14.01,2013-06-17 02:41:00,
2013-06-16 21:46:00,73.7,56.5,29.85,WSW,238,5.0,9.0,55,0.00,,---,0.00,0.00,VWS V14.01,2013-06-17 02:46:00,
2013-06-16 21:51:00,73.3,56.7,29.85,WSW,238,3.0,5.0,56,0.00,,---,0.00,0.00,VWS V14.01,2013-06-17 02:51:00,
2013-06-16 21:56:00,72.8,56.2,29.85,WSW,237,4.0,6.0,56,0.00,,---,0.00,0.00,VWS V14.01,2013-06-17 02:56:00,
2013-06-16 22:01:00,72.6,56.0,29.85,WSW,237,6.0,7.0,56,0.00,,---,0.00,0.00,VWS V14.01,2013-06-17 03:01:00,
2013-06-16 22:06:00,72.4,55.8,29.85,WSW,237,4.0,6.0,56,0.00,,---,0.00,0.00,VWS V14.01,2013-06-17 03:06:00,
2013-06-16 22:11:00,72.1,55.6,29.85,WSW,237,5.0,6.0,56,0.00,,---,0.00,0.00,VWS V14.01,2013-06-17 03:11:00,
2013-06-16 22:16:00,71.9,55.9,29.85,WSW,237,4.0,7.0,57,0.00,,---,0.00,0.00,VWS V14.01,2013-06-17 03:16:00,
2013-06-16 22:21:00,71.7,55.7,29.85,WSW,237,4.0,6.0,57,0.00,,---,0.00,0.00,VWS V14.01,2013-06-17 03:21:00,
2013-06-16 22:26:00,71.4,55.9,29.85,WSW,238,5.0,6.0,58,0.00,,---,0.00,0.00,VWS V14.01,2013-06-17 03:26:00,
2013-06-16 22:31:00,71.2,55.7,29.85,WSW,246,5.0,9.0,58,0.00,,---,0.00,0.00,VWS V14.01,2013-06-17 03:31:00,
2013-06-16 22:36:00,71.1,55.1,29.85,WSW,248,5.0,10.0,57,0.00,,---,0.00,0.00,VWS V14.01,2013-06-17 03:36:00,
2013-06-16 22:41:00,71.1,55.1,29.85,WSW,252,7.0,10.0,57,0.00,,---,0.00,0.00,VWS V14.01,2013-06-17 03:41:00,
2013-06-16 22:46:00,71.2,54.7,29.85,WSW,253,6.0,10.0,56,0.00,,---,0.00,0.00,VWS V14.01,2013-06-17 03:46:00,
2013-06-16 22:51:00,71.4,54.4,29.85,WSW,252,7.0,10.0,55,0.00,,---,0.00,0.00,VWS V14.01,2013-06-17 03:51:00,
2013-06-16 22:56:00,71.6,54.6,29.85,WSW,254,8.0,11.0,55,0.00,,---,0.00,0.00,VWS V14.01,2013-06-17 03:56:00,
2013-06-16 23:01:00,71.7,54.7,29.85,WSW,249,6.0,11.0,55,0.00,,---,0.00,0.00,VWS V14.01,2013-06-17 04:01:00,
2013-06-16 23:06:00,71.8,54.3,29.85,WSW,248,9.0,10.0,54,0.00,,---,0.00,0.00,VWS V14.01,2013-06-17 04:06:00,
2013-06-16 23:11:00,71.8,54.8,29.85,WSW,248,6.0,10.0,55,0.00,,---,0.00,0.00,VWS V14.01,2013-06-17 04:11:00,
2013-06-16 23:16:00,71.5,54.5,29.86,WSW,242,6.0,12.0,55,0.00,,---,0.00,0.00,VWS V14.01,2013-06-17 04:16:00,
2013-06-16 23:21:00,71.6,54.6,29.86,WSW,245,7.0,12.0,55,0.00,,---,0.00,0.00,VWS V14.01,2013-06-17 04:21:00,
2013-06-16 23:26:00,71.4,54.9,29.86,WSW,246,7.0,12.0,56,0.00,,---,0.00,0.00,VWS V14.01,2013-06-17 04:26:00,
2013-06-16 23:31:00,71.3,54.8,29.85,WSW,249,8.0,12.0,56,0.00,,---,0.00,0.00,VWS V14.01,2013-06-17 04:31:00,
2013-06-16 23:36:00,71.2,54.7,29.86,WSW,247,6.0,9.0,56,0.00,,---,0.00,0.00,VWS V14.01,2013-06-17 04:36:00,
2013-06-16 23:41:00,70.9,54.9,29.86,WSW,246,5.0,9.0,57,0.00,,---,0.00,0.00,VWS V14.01,2013-06-17 04:41:00,
2013-06-16 23:46:00,70.6,55.1,29.86,WSW,244,5.0,9.0,58,0.00,,---,0.00,0.00,VWS V14.01,2013-06-17 04:46:00,
2013-06-16 23:51:00,70.3,55.3,29.86,WSW,242,5.0,6.0,59,0.00,,---,0.00,0.00,VWS V14.01,2013-06-17 04:51:00,
2013-06-16 23:56:00,70.0,55.0,29.86,WSW,242,5.0,8.0,59,0.00,,---,0.00,0.00,VWS V14.01,2013-06-17 04:56:00,